EWG642 EDDH-LKPR

Flight info

Callsign EWG642
Flight time 0h 49m
Altitude 23000
Route RAMAR6C/05 RAMAR Z998 NUSGU/N0456F350 Z998 OSKAN M748 HDO DCT GOLOP
Aircraft A320/M-SDE3FGHIRWY/LB1

Departure

Time 2026-05-06 10:12
Airport Hamburg Helmut Schmidt Airport (EDDH)

Arrival

Time 2026-05-06 11:02
Airport Václav Havel Airport Prague (LKPR)
Time Latitude Longitude Altitude Speed Heading
2026-05-06 09:51 53.62370 9.99551 55 ft 0 kts 186°
2026-05-06 10:06 53.62363 9.99542 54 ft 4 kts 221°
2026-05-06 10:06 53.62375 9.99495 54 ft 5 kts 319°
2026-05-06 10:07 53.62389 9.99394 54 ft 12 kts 264°
2026-05-06 10:07 53.62384 9.99276 54 ft 8 kts 278°
2026-05-06 10:07 53.62421 9.99225 54 ft 6 kts 351°
2026-05-06 10:07 53.62475 9.99223 51 ft 12 kts
2026-05-06 10:08 53.62562 9.99159 47 ft 16 kts 295°
2026-05-06 10:08 53.62553 9.98990 47 ft 14 kts 260°
2026-05-06 10:08 53.62533 9.98844 44 ft 12 kts 257°
2026-05-06 10:08 53.62519 9.98717 47 ft 10 kts 260°
2026-05-06 10:09 53.62507 9.98604 45 ft 11 kts 260°
2026-05-06 10:09 53.62487 9.98433 47 ft 19 kts 258°
2026-05-06 10:09 53.62452 9.98172 47 ft 26 kts 250°
2026-05-06 10:09 53.62343 9.97917 47 ft 29 kts 230°
2026-05-06 10:10 53.62216 9.97658 47 ft 27 kts 231°
2026-05-06 10:10 53.62090 9.97405 47 ft 29 kts 230°
2026-05-06 10:10 53.61971 9.97163 47 ft 28 kts 230°
2026-05-06 10:10 53.61834 9.96885 47 ft 35 kts 230°
2026-05-06 10:11 53.61681 9.96567 47 ft 23 kts 235°
2026-05-06 10:11 53.61738 9.96414 47 ft 19 kts 352°
2026-05-06 10:11 53.61881 9.96487 44 ft 26 kts 60°
2026-05-06 10:11 53.62087 9.96899 41 ft 79 kts 50°
2026-05-06 10:12 53.62573 9.97879 41 ft 137 kts 50°
2026-05-06 10:12 53.63235 9.99205 469 ft 147 kts 49°
2026-05-06 10:12 53.63886 10.00549 1178 ft 148 kts 51°
2026-05-06 10:12 53.64554 10.01958 1678 ft 163 kts 51°
2026-05-06 10:13 53.65309 10.03554 2020 ft 185 kts 52°
2026-05-06 10:13 53.66141 10.05316 2582 ft 195 kts 53°
2026-05-06 10:13 53.66985 10.07102 3490 ft 194 kts 53°
2026-05-06 10:13 53.67675 10.09152 4009 ft 214 kts 77°
2026-05-06 10:14 53.67774 10.11805 4496 ft 238 kts 87°
2026-05-06 10:14 53.67868 10.14659 5308 ft 248 kts 85°
2026-05-06 10:14 53.68004 10.17549 6219 ft 254 kts 85°
2026-05-06 10:14 53.68152 10.20557 7005 ft 261 kts 85°
2026-05-06 10:15 53.68301 10.23644 7835 ft 267 kts 85°
2026-05-06 10:15 53.68447 10.26802 8755 ft 273 kts 86°
2026-05-06 10:15 53.68592 10.30034 9654 ft 280 kts 86°
2026-05-06 10:15 53.68738 10.33392 10215 ft 297 kts 86°
2026-05-06 10:16 53.68889 10.37004 10508 ft 320 kts 86°
2026-05-06 10:16 53.69044 10.40891 10728 ft 344 kts 86°
2026-05-06 10:16 53.69208 10.45042 10891 ft 366 kts 86°
2026-05-06 10:16 53.69383 10.49364 11290 ft 379 kts 87°
2026-05-06 10:17 53.69536 10.53824 11965 ft 384 kts 91°
2026-05-06 10:17 53.69127 10.58273 12653 ft 387 kts 109°
2026-05-06 10:17 53.67905 10.62324 13357 ft 390 kts 128°
2026-05-06 10:17 53.66014 10.65595 14021 ft 391 kts 140°
2026-05-06 10:18 53.63966 10.68623 14680 ft 393 kts 140°
2026-05-06 10:18 53.61892 10.71663 15247 ft 398 kts 140°
2026-05-06 10:18 53.59790 10.74739 15815 ft 402 kts 140°
2026-05-06 10:18 53.57672 10.77839 16387 ft 405 kts 140°
2026-05-06 10:19 53.55564 10.80928 16907 ft 409 kts 140°
2026-05-06 10:19 53.53407 10.84088 17419 ft 413 kts 140°
2026-05-06 10:19 53.51231 10.87270 17965 ft 416 kts 140°
2026-05-06 10:19 53.49039 10.90477 18447 ft 419 kts 140°
2026-05-06 10:20 53.46839 10.93698 18881 ft 422 kts 140°
2026-05-06 10:20 53.44616 10.96948 19299 ft 425 kts 140°
2026-05-06 10:20 53.42383 11.00211 19730 ft 427 kts 140°
2026-05-06 10:20 53.40133 11.03488 20139 ft 430 kts 141°
2026-05-06 10:21 53.37897 11.06732 20528 ft 432 kts 140°
2026-05-06 10:21 53.35621 11.10027 20915 ft 435 kts 141°
2026-05-06 10:21 53.33326 11.13344 21318 ft 437 kts 141°
2026-05-06 10:21 53.31021 11.16675 21695 ft 439 kts 140°
2026-05-06 10:22 53.28704 11.20024 22032 ft 442 kts 140°
2026-05-06 10:22 53.26373 11.23390 22379 ft 444 kts 140°
2026-05-06 10:22 53.24032 11.26765 22726 ft 446 kts 141°
2026-05-06 10:22 53.21676 11.30148 22838 ft 446 kts 141°
2026-05-06 10:23 53.19317 11.33523 22835 ft 448 kts 141°
2026-05-06 10:23 53.16944 11.36913 22965 ft 451 kts 141°
2026-05-06 10:23 53.14562 11.40321 23333 ft 453 kts 141°
2026-05-06 10:23 53.12199 11.43706 23632 ft 455 kts 141°
2026-05-06 10:24 53.09796 11.47145 23912 ft 456 kts 140°
2026-05-06 10:24 53.07385 11.50586 24190 ft 457 kts 141°
2026-05-06 10:24 53.04966 11.54025 24455 ft 459 kts 140°
2026-05-06 10:24 53.02538 11.57474 24692 ft 460 kts 140°
2026-05-06 10:25 53.00105 11.60928 24956 ft 460 kts 140°
2026-05-06 10:25 52.97666 11.64379 25191 ft 461 kts 141°
2026-05-06 10:25 52.95221 11.67834 25429 ft 462 kts 140°
2026-05-06 10:25 52.92768 11.71298 25614 ft 463 kts 141°
2026-05-06 10:26 52.90310 11.74763 25782 ft 466 kts 141°
2026-05-06 10:26 52.87870 11.78195 26104 ft 463 kts 141°
2026-05-06 10:26 52.85453 11.81592 26954 ft 451 kts 141°
2026-05-06 10:26 52.83069 11.84939 27453 ft 449 kts 140°
2026-05-06 10:27 52.80687 11.88277 27810 ft 449 kts 141°
2026-05-06 10:27 52.78304 11.91608 28125 ft 449 kts 140°
2026-05-06 10:27 52.75916 11.94940 28410 ft 451 kts 140°
2026-05-06 10:27 52.73515 11.98290 28658 ft 453 kts 140°
2026-05-06 10:28 52.71105 12.01649 28935 ft 454 kts 140°
2026-05-06 10:28 52.68731 12.04950 29340 ft 451 kts 140°
2026-05-06 10:28 52.66336 12.08275 29772 ft 450 kts 140°
2026-05-06 10:28 52.63946 12.11584 30093 ft 449 kts 141°
2026-05-06 10:29 52.61559 12.14884 30398 ft 448 kts 141°
2026-05-06 10:29 52.59170 12.18188 30632 ft 449 kts 141°
2026-05-06 10:29 52.56777 12.21497 30880 ft 449 kts 141°
2026-05-06 10:29 52.54386 12.24800 31164 ft 449 kts 141°
2026-05-06 10:30 52.51994 12.28090 31450 ft 448 kts 141°
2026-05-06 10:30 52.49604 12.31370 31733 ft 447 kts 141°
2026-05-06 10:30 52.47249 12.34599 32021 ft 447 kts 142°
2026-05-06 10:30 52.44865 12.37865 32317 ft 446 kts 142°
2026-05-06 10:31 52.42484 12.41116 32616 ft 445 kts 142°
2026-05-06 10:31 52.40107 12.44357 32909 ft 444 kts 142°
2026-05-06 10:31 52.37736 12.47585 33199 ft 444 kts 142°
2026-05-06 10:31 52.35362 12.50813 33444 ft 444 kts 143°
2026-05-06 10:32 52.32981 12.54047 33658 ft 445 kts 143°
2026-05-06 10:32 52.30601 12.57282 33928 ft 444 kts 143°
2026-05-06 10:32 52.28226 12.60515 34168 ft 444 kts 143°
2026-05-06 10:32 52.25853 12.63741 34391 ft 444 kts 143°
2026-05-06 10:33 52.23342 12.67140 34622 ft 444 kts 144°
2026-05-06 10:33 52.21124 12.70127 34745 ft 445 kts 144°
2026-05-06 10:33 52.16336 12.76567 34791 ft 447 kts 144°
2026-05-06 10:34 52.11541 12.83010 34790 ft 447 kts 144°
2026-05-06 10:34 52.06739 12.89442 34788 ft 448 kts 144°
2026-05-06 10:35 52.01929 12.95872 34783 ft 448 kts 145°
2026-05-06 10:35 51.97150 13.02253 34776 ft 447 kts 145°
2026-05-06 10:36 51.92338 13.08640 34775 ft 447 kts 145°
2026-05-06 10:36 51.87525 13.15006 34774 ft 447 kts 145°
2026-05-06 10:37 51.82708 13.21366 34771 ft 447 kts 145°
2026-05-06 10:37 51.77892 13.27711 34760 ft 447 kts 145°
2026-05-06 10:38 51.73069 13.34059 34748 ft 448 kts 146°
2026-05-06 10:38 51.68258 13.40365 34754 ft 449 kts 146°
2026-05-06 10:39 51.63400 13.46705 34761 ft 450 kts 146°
2026-05-06 10:39 51.58528 13.53031 34766 ft 450 kts 146°
2026-05-06 10:40 51.53652 13.59362 34749 ft 451 kts 146°
2026-05-06 10:40 51.48774 13.65682 34760 ft 451 kts 146°
2026-05-06 10:41 51.43887 13.71993 34756 ft 451 kts 147°
2026-05-06 10:41 51.39023 13.78258 34765 ft 451 kts 147°
2026-05-06 10:42 51.34126 13.84546 34774 ft 451 kts 147°
2026-05-06 10:42 51.29224 13.90822 34772 ft 451 kts 147°
2026-05-06 10:43 51.24321 13.97084 34775 ft 451 kts 147°
2026-05-06 10:44 51.16987 14.06406 34765 ft 452 kts 147°
2026-05-06 10:44 51.12062 14.12641 34766 ft 453 kts 147°
2026-05-06 10:45 51.07124 14.18881 34672 ft 454 kts 147°
2026-05-06 10:45 51.04650 14.22004 34432 ft 454 kts 147°
2026-05-06 10:45 51.02178 14.25120 33950 ft 454 kts 148°
2026-05-06 10:45 50.99727 14.28201 32936 ft 456 kts 148°
2026-05-06 10:46 50.97239 14.31323 31986 ft 455 kts 148°
2026-05-06 10:46 50.94696 14.34289 30956 ft 451 kts 154°
2026-05-06 10:46 50.91955 14.36614 29991 ft 444 kts 162°
2026-05-06 10:46 50.89071 14.38259 28825 ft 438 kts 171°
2026-05-06 10:47 50.86123 14.39382 27712 ft 436 kts 172°
2026-05-06 10:47 50.83167 14.40474 26601 ft 436 kts 172°
2026-05-06 10:47 50.80201 14.41571 25417 ft 439 kts 172°
2026-05-06 10:47 50.77257 14.42662 24299 ft 441 kts 172°
2026-05-06 10:48 50.74263 14.43775 23165 ft 443 kts 171°
2026-05-06 10:48 50.71262 14.44892 22051 ft 442 kts 171°
2026-05-06 10:48 50.68293 14.46000 21234 ft 435 kts 171°
2026-05-06 10:48 50.65367 14.47087 20400 ft 430 kts 171°
2026-05-06 10:49 50.62472 14.48154 19582 ft 425 kts 171°
2026-05-06 10:49 50.59605 14.49205 18775 ft 421 kts 171°
2026-05-06 10:49 50.56734 14.49885 17928 ft 415 kts 177°
2026-05-06 10:49 50.53871 14.50335 17041 ft 412 kts 177°
2026-05-06 10:50 50.51070 14.50780 16284 ft 407 kts 177°
2026-05-06 10:50 50.48265 14.51224 15511 ft 403 kts 177°
2026-05-06 10:50 50.45483 14.51661 14791 ft 400 kts 177°
2026-05-06 10:50 50.42730 14.51771 14074 ft 393 kts 188°
2026-05-06 10:51 50.40097 14.50810 13362 ft 387 kts 202°
2026-05-06 10:51 50.37748 14.48826 12654 ft 381 kts 217°
2026-05-06 10:51 50.35841 14.45993 11932 ft 377 kts 231°
2026-05-06 10:51 50.34475 14.42525 11236 ft 374 kts 244°
2026-05-06 10:52 50.33423 14.38932 10960 ft 359 kts 244°
2026-05-06 10:52 50.32403 14.35477 10834 ft 340 kts 244°
2026-05-06 10:52 50.31416 14.32221 10709 ft 323 kts 240°
2026-05-06 10:52 50.30033 14.29594 10594 ft 308 kts 218°
2026-05-06 10:53 50.28164 14.28123 10469 ft 298 kts 196°
2026-05-06 10:53 50.26130 14.27944 10346 ft 292 kts 174°
2026-05-06 10:53 50.24246 14.28996 10172 ft 289 kts 151°
2026-05-06 10:53 50.22849 14.31237 10006 ft 294 kts 123°
2026-05-06 10:54 50.22247 14.34297 9876 ft 302 kts 95°
2026-05-06 10:54 50.22599 14.37511 9481 ft 314 kts 68°
2026-05-06 10:54 50.23873 14.40330 8980 ft 318 kts 49°
2026-05-06 10:54 50.25220 14.43018 8658 ft 312 kts 57°
2026-05-06 10:55 50.26272 14.45959 8281 ft 309 kts 64°
2026-05-06 10:55 50.27219 14.48953 7895 ft 306 kts 68°
2026-05-06 10:55 50.27606 14.52146 7509 ft 297 kts 98°
2026-05-06 10:55 50.26908 14.55081 7098 ft 287 kts 130°
2026-05-06 10:56 50.25374 14.57008 6353 ft 285 kts 160°
2026-05-06 10:56 50.23512 14.57981 5593 ft 279 kts 172°
2026-05-06 10:56 50.21658 14.57871 4937 ft 266 kts 204°
2026-05-06 10:56 50.20292 14.56244 4817 ft 237 kts 234°
2026-05-06 10:57 50.19540 14.54151 4725 ft 223 kts 245°
2026-05-06 10:57 50.19289 14.53291 4657 ft 220 kts 245°
2026-05-06 10:57 50.18675 14.51157 4465 ft 212 kts 245°
2026-05-06 10:57 50.18069 14.49089 4198 ft 205 kts 245°
2026-05-06 10:58 50.17490 14.47134 3934 ft 193 kts 245°
2026-05-06 10:58 50.16949 14.45310 3714 ft 178 kts 244°
2026-05-06 10:58 50.16446 14.43616 3458 ft 166 kts 245°
2026-05-06 10:58 50.15981 14.42055 3245 ft 153 kts 245°
2026-05-06 10:59 50.15548 14.40597 3068 ft 152 kts 244°
2026-05-06 10:59 50.15099 14.39089 2840 ft 155 kts 245°
2026-05-06 10:59 50.14636 14.37534 2651 ft 157 kts 244°
2026-05-06 10:59 50.14188 14.36030 2444 ft 146 kts 245°
2026-05-06 11:00 50.13775 14.34645 2253 ft 137 kts 244°
2026-05-06 11:00 50.13379 14.33317 2066 ft 135 kts 243°
2026-05-06 11:00 50.12988 14.32009 1872 ft 132 kts 244°
2026-05-06 11:00 50.12601 14.30721 1709 ft 133 kts 242°
2026-05-06 11:01 50.12213 14.29429 1559 ft 133 kts 243°
2026-05-06 11:01 50.11834 14.28131 1353 ft 131 kts 243°
2026-05-06 11:01 50.11450 14.26853 1182 ft 129 kts 243°
2026-05-06 11:01 50.11130 14.25788 1166 ft 84 kts 246°
2026-05-06 11:02 50.11013 14.25445 1174 ft 4 kts 199°
2026-05-06 11:02 50.10974 14.25424 1174 ft 23 kts 202°